M I D A S
Marine Information and Data Acquisition System
Tripno 1367 of the Zeeleeuw from 2007-11-28 07:47:49 to 2007-11-28 14:43:21
Back to CruiseResearch ActivitiesStationsMapUnderway DataData graphs

EquipmentUnitsComments
TimeDGPSUTC
LatitudeDGPSDM.mWGS84
LongitudeDGPSDM.mWGS84
SpeedMeteo Stationm/sRelative wind speed
DirectionMeteo StationdegRelative wind direction
TemperatureMeteo Stationdeg CelciusAir temperature
PressureMeteo StationPaAtmospheric pressure
HumidityMeteo Station%Relative humidity
Missing or incorrect values are displayed as -999
Metereological data collected by the RV Zeeleeuw from 2007-11-28 07:53:35 to 2007-11-28 14:54:06
                                                                                    Next 1000 lines
Time Latitude Longitude Speed Direction Temperature Pressure Humidity
2007-11-28 07:53:44 51°13.599 2°56.094 -999 -999 -999 -999 -999
2007-11-28 07:53:49 51°13.599 2°56.091 -999 -999 -999 -999 -999
2007-11-28 07:53:55 51°13.6 2°56.087 -999 -999 -999 -999 -999
2007-11-28 07:54:00 51°13.601 2°56.083 -999 -999 -999 -999 -999
2007-11-28 07:54:04 51°13.602 2°56.079 -999 -999 -999 -999 -999
2007-11-28 07:54:10 51°13.603 2°56.073 -999 -999 -999 -999 -999
2007-11-28 07:54:15 51°13.605 2°56.067 -999 -999 -999 -999 -999
2007-11-28 07:54:20 51°13.607 2°56.061 -999 -999 -999 -999 -999
2007-11-28 07:54:25 51°13.609 2°56.054 -999 -999 -999 -999 -999
2007-11-28 07:54:30 51°13.611 2°56.046 -999 -999 -999 -999 -999
2007-11-28 07:54:35 51°13.613 2°56.037 -999 -999 -999 -999 -999
2007-11-28 07:54:40 51°13.616 2°56.028 -999 -999 -999 -999 -999
2007-11-28 07:54:45 51°13.619 2°56.019 -999 -999 -999 -999 -999
2007-11-28 07:54:50 51°13.621 2°56.009 -999 -999 -999 -999 -999
2007-11-28 07:54:55 51°13.624 2°55.998 -999 -999 -999 -999 -999
2007-11-28 07:55:00 51°13.627 2°55.988 -999 -999 -999 -999 -999
2007-11-28 07:55:05 51°13.63 2°55.977 -999 -999 -999 -999 -999
2007-11-28 07:55:10 51°13.633 2°55.966 -999 -999 -999 -999 -999
2007-11-28 07:55:15 51°13.637 2°55.955 -999 -999 -999 -999 -999
2007-11-28 07:55:20 51°13.64 2°55.944 -999 -999 -999 -999 -999
2007-11-28 07:55:25 51°13.644 2°55.933 -999 -999 -999 -999 -999
2007-11-28 07:55:30 51°13.648 2°55.922 -999 -999 -999 -999 -999
2007-11-28 07:55:35 51°13.652 2°55.911 -999 -999 -999 -999 -999
2007-11-28 07:55:40 51°13.656 2°55.9 -999 -999 -999 -999 -999
2007-11-28 07:55:45 51°13.66 2°55.89 -999 -999 -999 -999 -999
2007-11-28 07:55:50 51°13.664 2°55.88 -999 -999 -999 -999 -999
2007-11-28 07:55:55 51°13.667 2°55.87 -999 -999 -999 -999 -999
2007-11-28 07:56:00 51°13.671 2°55.861 -999 -999 -999 -999 -999
2007-11-28 07:56:05 51°13.674 2°55.851 -999 -999 -999 -999 -999
2007-11-28 07:56:10 51°13.677 2°55.842 -999 -999 -999 -999 -999
2007-11-28 07:56:15 51°13.68 2°55.833 -999 -999 -999 -999 -999
2007-11-28 07:56:20 51°13.683 2°55.824 -999 -999 -999 -999 -999
2007-11-28 07:56:24 51°13.686 2°55.817 -999 -999 -999 -999 -999
2007-11-28 07:56:30 51°13.689 2°55.807 -999 -999 -999 -999 -999
2007-11-28 07:56:35 51°13.692 2°55.799 -999 -999 -999 -999 -999
2007-11-28 07:56:40 51°13.695 2°55.791 -999 -999 -999 -999 -999
2007-11-28 07:56:45 51°13.697 2°55.783 -999 -999 -999 -999 -999
2007-11-28 07:56:50 51°13.699 2°55.776 -999 -999 -999 -999 -999
2007-11-28 07:56:56 51°13.702 2°55.767 -999 -999 -999 -999 -999
2007-11-28 07:57:00 51°13.703 2°55.761 -999 -999 -999 -999 -999
2007-11-28 07:57:04 51°13.705 2°55.756 -999 -999 -999 -999 -999
2007-11-28 07:57:09 51°13.706 2°55.75 -999 -999 -999 -999 -999
2007-11-28 07:57:15 51°13.708 2°55.742 -999 -999 -999 -999 -999
2007-11-28 07:57:20 51°13.71 2°55.737 -999 -999 -999 -999 -999
2007-11-28 07:57:24 51°13.711 2°55.734 -999 -999 -999 -999 -999
2007-11-28 07:57:29 51°13.711 2°55.73 -999 -999 -999 -999 -999
2007-11-28 07:57:35 51°13.713 2°55.725 -999 -999 -999 -999 -999
2007-11-28 07:57:40 51°13.713 2°55.722 -999 -999 -999 -999 -999
2007-11-28 07:57:44 51°13.713 2°55.719 -999 -999 -999 -999 -999
2007-11-28 07:57:49 51°13.714 2°55.717 -999 -999 -999 -999 -999
2007-11-28 07:57:55 51°13.714 2°55.713 -999 -999 -999 -999 -999
2007-11-28 07:58:00 51°13.715 2°55.711 -999 -999 -999 -999 -999
2007-11-28 07:58:04 51°13.715 2°55.709 -999 -999 -999 -999 -999
2007-11-28 07:58:09 51°13.715 2°55.707 -999 -999 -999 -999 -999
2007-11-28 07:58:15 51°13.716 2°55.706 -999 -999 -999 -999 -999
2007-11-28 07:58:20 51°13.716 2°55.704 -999 -999 -999 -999 -999
2007-11-28 07:58:24 51°13.716 2°55.703 -999 -999 -999 -999 -999
2007-11-28 07:58:30 51°13.717 2°55.702 -999 -999 -999 -999 -999
2007-11-28 07:58:35 51°13.717 2°55.701 -999 -999 -999 -999 -999
2007-11-28 07:58:40 51°13.717 2°55.7 -999 -999 -999 -999 -999
2007-11-28 07:58:44 51°13.718 2°55.7 -999 -999 -999 -999 -999
2007-11-28 07:58:50 51°13.719 2°55.699 -999 -999 -999 -999 -999
2007-11-28 07:58:55 51°13.72 2°55.699 -999 -999 -999 -999 -999
2007-11-28 07:59:00 51°13.721 2°55.7 -999 -999 -999 -999 -999
2007-11-28 07:59:04 51°13.722 2°55.7 -999 -999 -999 -999 -999
2007-11-28 07:59:10 51°13.724 2°55.701 -999 -999 -999 -999 -999
2007-11-28 07:59:15 51°13.726 2°55.702 -999 -999 -999 -999 -999
2007-11-28 07:59:20 51°13.729 2°55.704 -999 -999 -999 -999 -999
2007-11-28 07:59:24 51°13.732 2°55.705 -999 -999 -999 -999 -999
2007-11-28 07:59:29 51°13.736 2°55.706 -999 -999 -999 -999 -999
2007-11-28 07:59:36 51°13.743 2°55.705 -999 -999 -999 -999 -999
2007-11-28 07:59:40 51°13.747 2°55.704 -999 -999 -999 -999 -999
2007-11-28 07:59:44 51°13.752 2°55.702 -999 -999 -999 -999 -999
2007-11-28 07:59:50 51°13.76 2°55.697 -999 -999 -999 -999 -999
2007-11-28 07:59:56 51°13.767 2°55.692 -999 -999 -999 -999 -999
2007-11-28 08:00:00 51°13.772 2°55.689 -999 -999 -999 -999 -999
2007-11-28 08:00:04 51°13.777 2°55.684 -999 -999 -999 -999 -999
2007-11-28 08:00:10 51°13.786 2°55.677 -999 -999 -999 -999 -999
2007-11-28 08:00:16 51°13.794 2°55.67 -999 -999 -999 -999 -999
2007-11-28 08:00:20 51°13.8 2°55.665 -999 -999 -999 -999 -999
2007-11-28 08:00:24 51°13.806 2°55.66 -999 -999 -999 -999 -999
2007-11-28 08:00:30 51°13.816 2°55.652 -999 -999 -999 -999 -999
2007-11-28 08:00:36 51°13.826 2°55.644 -999 -999 -999 -999 -999
2007-11-28 08:00:40 51°13.833 2°55.639 -999 -999 -999 -999 -999
2007-11-28 08:00:44 51°13.84 2°55.634 -999 -999 -999 -999 -999
2007-11-28 08:00:50 51°13.851 2°55.625 -999 -999 -999 -999 -999
2007-11-28 08:00:55 51°13.86 2°55.618 -999 -999 -999 -999 -999
2007-11-28 08:01:00 51°13.869 2°55.61 -999 -999 -999 -999 -999
2007-11-28 08:01:04 51°13.877 2°55.604 -999 -999 -999 -999 -999
2007-11-28 08:01:10 51°13.889 2°55.595 -999 -999 -999 -999 -999
2007-11-28 08:01:15 51°13.899 2°55.587 -999 -999 -999 -999 -999
2007-11-28 08:01:20 51°13.909 2°55.579 -999 -999 -999 -999 -999
2007-11-28 08:01:24 51°13.918 2°55.572 -999 -999 -999 -999 -999
2007-11-28 08:01:30 51°13.93 2°55.562 -999 -999 -999 -999 -999
2007-11-28 08:01:36 51°13.943 2°55.553 -999 -999 -999 -999 -999
2007-11-28 08:01:40 51°13.951 2°55.546 -999 -999 -999 -999 -999
2007-11-28 08:01:44 51°13.96 2°55.54 -999 -999 -999 -999 -999
2007-11-28 08:01:49 51°13.97 2°55.531 -999 -999 -999 -999 -999
2007-11-28 08:01:56 51°13.985 2°55.52 -999 -999 -999 -999 -999
2007-11-28 08:02:00 51°13.994 2°55.514 -999 -999 -999 -999 -999
2007-11-28 08:02:04 51°14.003 2°55.507 -999 -999 -999 -999 -999
2007-11-28 08:02:10 51°14.015 2°55.497 -999 -999 -999 -999 -999
2007-11-28 08:02:14 51°14.024 2°55.491 -999 -999 -999 -999 -999
2007-11-28 08:02:20 51°14.037 2°55.481 -999 -999 -999 -999 -999
2007-11-28 08:02:24 51°14.045 2°55.474 -999 -999 -999 -999 -999
2007-11-28 08:02:29 51°14.056 2°55.465 -999 -999 -999 -999 -999
2007-11-28 08:02:36 51°14.071 2°55.453 -999 -999 -999 -999 -999
2007-11-28 08:02:40 51°14.079 2°55.447 -999 -999 -999 -999 -999
2007-11-28 08:02:44 51°14.087 2°55.44 -999 -999 -999 -999 -999
2007-11-28 08:02:50 51°14.1 2°55.431 -999 -999 -999 -999 -999
2007-11-28 08:02:56 51°14.112 2°55.421 -999 -999 -999 -999 -999
2007-11-28 08:03:00 51°14.12 2°55.415 -999 -999 -999 -999 -999
2007-11-28 08:03:04 51°14.128 2°55.409 -999 -999 -999 -999 -999
2007-11-28 08:03:10 51°14.139 2°55.4 -999 -999 -999 -999 -999
2007-11-28 08:03:15 51°14.149 2°55.392 -999 -999 -999 -999 -999
2007-11-28 08:03:20 51°14.158 2°55.383 -999 -999 -999 -999 -999
2007-11-28 08:03:25 51°14.168 2°55.374 -999 -999 -999 -999 -999
2007-11-28 08:03:30 51°14.177 2°55.365 -999 -999 -999 -999 -999
2007-11-28 08:03:35 51°14.186 2°55.356 -999 -999 -999 -999 -999
2007-11-28 08:03:40 51°14.194 2°55.346 -999 -999 -999 -999 -999
2007-11-28 08:03:44 51°14.201 2°55.338 -999 -999 -999 -999 -999
2007-11-28 08:03:50 51°14.211 2°55.326 -999 -999 -999 -999 -999
2007-11-28 08:03:55 51°14.22 2°55.316 -999 -999 -999 -999 -999
2007-11-28 08:04:00 51°14.228 2°55.306 -999 -999 -999 -999 -999
2007-11-28 08:04:04 51°14.234 2°55.297 -999 -999 -999 -999 -999
2007-11-28 08:04:09 51°14.242 2°55.286 -999 -999 -999 -999 -999
2007-11-28 08:04:16 51°14.252 2°55.27 -999 -999 -999 -999 -999
2007-11-28 08:04:20 51°14.258 2°55.261 -999 -999 -999 -999 -999
2007-11-28 08:04:24 51°14.264 2°55.251 -999 -999 -999 -999 -999
2007-11-28 08:04:29 51°14.271 2°55.239 -999 -999 -999 -999 -999
2007-11-28 08:04:34 51°14.278 2°55.227 -999 -999 -999 -999 -999
2007-11-28 08:04:39 51°14.285 2°55.215 -999 -999 -999 -999 -999
2007-11-28 08:04:44 51°14.291 2°55.202 -999 -999 -999 -999 -999
2007-11-28 08:04:49 51°14.298 2°55.189 -999 -999 -999 -999 -999
2007-11-28 08:04:55 51°14.306 2°55.172 -999 -999 -999 -999 -999
2007-11-28 08:05:00 51°14.314 2°55.157 -999 -999 -999 -999 -999
2007-11-28 08:05:04 51°14.32 2°55.145 -999 -999 -999 -999 -999
2007-11-28 08:05:10 51°14.329 2°55.126 -999 -999 -999 -999 -999
2007-11-28 08:05:15 51°14.337 2°55.109 -999 -999 -999 -999 -999
2007-11-28 08:05:19 51°14.344 2°55.095 -999 -999 -999 -999 -999
2007-11-28 08:05:24 51°14.352 2°55.077 -999 -999 -999 -999 -999
2007-11-28 08:05:30 51°14.362 2°55.054 -999 -999 -999 -999 -999
2007-11-28 08:05:35 51°14.371 2°55.035 -999 -999 -999 -999 -999
2007-11-28 08:05:40 51°14.379 2°55.016 -999 -999 -999 -999 -999
2007-11-28 08:05:44 51°14.386 2°55 -999 -999 -999 -999 -999
2007-11-28 08:05:50 51°14.397 2°54.975 -999 -999 -999 -999 -999
2007-11-28 08:05:55 51°14.406 2°54.954 -999 -999 -999 -999 -999
2007-11-28 08:06:00 51°14.415 2°54.932 -999 -999 -999 -999 -999
2007-11-28 08:06:04 51°14.422 2°54.914 -999 -999 -999 -999 -999
2007-11-28 08:06:09 51°14.431 2°54.891 -999 -999 -999 -999 -999
2007-11-28 08:06:15 51°14.442 2°54.864 -999 -999 -999 -999 -999
2007-11-28 08:06:20 51°14.452 2°54.841 -999 -999 -999 -999 -999
2007-11-28 08:06:24 51°14.46 2°54.823 -999 -999 -999 -999 -999
2007-11-28 08:06:29 51°14.47 2°54.8 -999 -999 -999 -999 -999
2007-11-28 08:06:35 51°14.483 2°54.773 -999 -999 -999 -999 -999
2007-11-28 08:06:40 51°14.495 2°54.752 -999 -999 -999 -999 -999
2007-11-28 08:06:44 51°14.504 2°54.735 -999 -999 -999 -999 -999
2007-11-28 08:06:49 51°14.516 2°54.715 -999 -999 -999 -999 -999
2007-11-28 08:06:55 51°14.531 2°54.691 -999 -999 -999 -999 -999
2007-11-28 08:06:59 51°14.542 2°54.676 -999 -999 -999 -999 -999
2007-11-28 08:07:04 51°14.555 2°54.657 -999 -999 -999 -999 -999
2007-11-28 08:07:09 51°14.568 2°54.639 -999 -999 -999 -999 -999
2007-11-28 08:07:15 51°14.585 2°54.62 -999 -999 -999 -999 -999
2007-11-28 08:07:19 51°14.596 2°54.606 -999 -999 -999 -999 -999
2007-11-28 08:07:24 51°14.611 2°54.591 -999 -999 -999 -999 -999
2007-11-28 08:07:29 51°14.625 2°54.576 5.3 259 -999 -999 -999
2007-11-28 08:07:34 51°14.64 2°54.561 3.6 263 -999 -999 -999
2007-11-28 08:07:39 51°14.655 2°54.547 8.5 282 -999 -999 -999
2007-11-28 08:07:44 51°14.67 2°54.533 6.8 261 6.5 -999 73
2007-11-28 08:07:48 51°14.682 2°54.522 5.3 279 6.5 -999 73
2007-11-28 08:07:53 51°14.697 2°54.508 6.9 254 6.6 -999 78
2007-11-28 08:07:58 51°14.712 2°54.494 4.4 280 6.6 -999 78
2007-11-28 08:08:02 51°14.724 2°54.483 7.2 258 6.6 102080 78
2007-11-28 08:08:08 51°14.742 2°54.467 8.2 283 6.6 102080 78
2007-11-28 08:08:12 51°14.754 2°54.457 6.5 256 6.6 102080 78
2007-11-28 08:08:17 51°14.769 2°54.443 6.3 281 6.6 102080 78
2007-11-28 08:08:21 51°14.781 2°54.432 7.3 256 6.6 102080 78
2007-11-28 08:08:26 51°14.796 2°54.419 7.4 286 6.6 102080 78
2007-11-28 08:08:31 51°14.811 2°54.405 5.3 256 6.6 102080 78
2007-11-28 08:08:36 51°14.827 2°54.391 6.1 285 6.6 102080 78
2007-11-28 08:08:40 51°14.838 2°54.38 5.8 250 6.6 102080 78
2007-11-28 08:08:46 51°14.856 2°54.363 7.7 279 6.6 102080 78
2007-11-28 08:08:51 51°14.871 2°54.349 4.8 261 6.6 102080 78
2007-11-28 08:08:56 51°14.886 2°54.335 7 280 6.6 102080 78
2007-11-28 08:09:00 51°14.898 2°54.324 7 19 6.6 102070 78
2007-11-28 08:09:06 51°14.916 2°54.308 4.9 279 6.6 102070 78
2007-11-28 08:09:11 51°14.931 2°54.295 9.6 257 6.6 102070 78
2007-11-28 08:09:16 51°14.946 2°54.281 7 286 6.6 102070 78
2007-11-28 08:09:20 51°14.957 2°54.27 7.4 260 6.6 102070 78
2007-11-28 08:09:26 51°14.975 2°54.255 6 282 6.6 102070 78
2007-11-28 08:09:31 51°14.99 2°54.241 4.7 260 6.6 102080 78
2007-11-28 08:09:36 51°15.004 2°54.228 7.4 282 6.6 102080 78
2007-11-28 08:09:41 51°15.018 2°54.213 4 262 6.6 102070 78
2007-11-28 08:09:46 51°15.032 2°54.198 4.7 281 6.6 102070 78
2007-11-28 08:09:51 51°15.046 2°54.182 7.1 257 6.6 102070 77
2007-11-28 08:09:56 51°15.06 2°54.166 6.8 281 6.6 102070 77
2007-11-28 08:10:01 51°15.073 2°54.15 8.3 262 6.6 102080 78
2007-11-28 08:10:06 51°15.087 2°54.134 5.1 281 6.6 102080 78
2007-11-28 08:10:12 51°15.103 2°54.114 7.4 256 6.6 102070 77
2007-11-28 08:10:17 51°15.117 2°54.097 6.4 283 6.6 102070 77
2007-11-28 08:10:21 51°15.128 2°54.084 6.5 259 6.6 102070 77
2007-11-28 08:10:27 51°15.145 2°54.065 6.8 284 6.6 102070 77
2007-11-28 08:10:32 51°15.159 2°54.05 5.2 261 6.6 102070 77
2007-11-28 08:10:37 51°15.174 2°54.036 5.1 286 6.6 102070 77
2007-11-28 08:10:41 51°15.186 2°54.026 3.8 260 6.6 102070 77
2007-11-28 08:10:47 51°15.205 2°54.012 3.5 283 6.6 102070 77
2007-11-28 08:10:52 51°15.221 2°54.002 2.8 263 6.7 102070 78
2007-11-28 08:10:57 51°15.237 2°53.992 4 284 6.7 102070 78
2007-11-28 08:11:01 51°15.25 2°53.985 3.1 267 6.7 102070 78
2007-11-28 08:11:07 51°15.269 2°53.975 3.2 280 6.7 102070 78
2007-11-28 08:11:12 51°15.285 2°53.966 2.9 265 6.7 102080 78
2007-11-28 08:11:17 51°15.301 2°53.955 3.1 281 6.7 102080 78
2007-11-28 08:11:21 51°15.314 2°53.948 3 264 6.7 102080 78
2007-11-28 08:11:27 51°15.333 2°53.935 2.9 280 6.7 102080 78
2007-11-28 08:11:32 51°15.349 2°53.925 5.1 260 6.7 102070 78
2007-11-28 08:11:37 51°15.365 2°53.913 3.2 283 6.7 102070 78
2007-11-28 08:11:41 51°15.378 2°53.904 4 259 6.7 102070 78
2007-11-28 08:11:47 51°15.396 2°53.889 5.4 283 6.7 102070 78
2007-11-28 08:11:52 51°15.411 2°53.876 6 262 6.7 102080 78
2007-11-28 08:11:57 51°15.427 2°53.863 4.7 279 6.7 102080 78
2007-11-28 08:12:01 51°15.439 2°53.852 5.2 265 6.7 102070 78
2007-11-28 08:12:07 51°15.457 2°53.836 4.4 283 6.7 102070 78
2007-11-28 08:12:12 51°15.473 2°53.823 5.6 254 6.8 102070 78
2007-11-28 08:12:17 51°15.488 2°53.81 6.9 279 6.8 102070 78
2007-11-28 08:12:21 51°15.501 2°53.799 4.1 264 6.7 102070 78
2007-11-28 08:12:27 51°15.519 2°53.784 8.1 281 6.7 102070 78
2007-11-28 08:12:32 51°15.534 2°53.771 6 263 6.7 102070 78
2007-11-28 08:12:37 51°15.55 2°53.759 4.4 286 6.7 102070 78
2007-11-28 08:12:41 51°15.562 2°53.749 3.5 260 6.8 102070 78
2007-11-28 08:12:47 51°15.581 2°53.734 3.6 281 6.8 102070 78
2007-11-28 08:12:52 51°15.597 2°53.722 5.8 260 6.7 102070 77
2007-11-28 08:12:57 51°15.613 2°53.711 4 279 6.7 102070 77
2007-11-28 08:13:01 51°15.625 2°53.702 3.1 264 6.8 102070 77
2007-11-28 08:13:07 51°15.645 2°53.689 5.3 281 6.8 102070 77
2007-11-28 08:13:12 51°15.661 2°53.679 3.8 265 6.8 102070 77
2007-11-28 08:13:17 51°15.677 2°53.668 5.8 283 6.8 102070 77
2007-11-28 08:13:21 51°15.69 2°53.66 6.9 259 6.7 102070 77
2007-11-28 08:13:27 51°15.709 2°53.647 3.9 285 6.7 102070 77
2007-11-28 08:13:32 51°15.725 2°53.635 5.1 264 6.7 102070 77
2007-11-28 08:13:37 51°15.74 2°53.623 6.2 283 6.7 102070 77
2007-11-28 08:13:41 51°15.753 2°53.613 4.9 259 6.7 102070 77
2007-11-28 08:13:47 51°15.771 2°53.596 5.4 287 6.7 102070 77
2007-11-28 08:13:52 51°15.786 2°53.582 6.2 260 6.8 102070 77
2007-11-28 08:13:57 51°15.801 2°53.568 5.8 281 6.8 102070 77
2007-11-28 08:14:01 51°15.813 2°53.556 4.8 262 6.8 102070 77
2007-11-28 08:14:07 51°15.831 2°53.539 5.1 284 6.8 102070 77
2007-11-28 08:14:12 51°15.846 2°53.524 5.1 262 6.8 102070 77
2007-11-28 08:14:17 51°15.861 2°53.509 4.1 284 6.8 102070 77
2007-11-28 08:14:21 51°15.873 2°53.498 6.1 260 6.8 102070 77
2007-11-28 08:14:27 51°15.891 2°53.48 4.9 286 6.8 102070 77
2007-11-28 08:14:32 51°15.907 2°53.467 5.5 253 6.8 102070 77
2007-11-28 08:14:37 51°15.922 2°53.453 6.3 285 6.8 102070 77
2007-11-28 08:14:41 51°15.934 2°53.442 4.8 262 6.8 102060 77
2007-11-28 08:14:47 51°15.953 2°53.427 5.1 279 6.8 102060 77
2007-11-28 08:14:52 51°15.968 2°53.415 6.4 267 6.8 102060 77
2007-11-28 08:14:57 51°15.984 2°53.402 5.8 284 6.8 102060 77
2007-11-28 08:15:01 51°15.996 2°53.392 5.1 263 6.8 102060 77
2007-11-28 08:15:07 51°16.015 2°53.377 5.6 285 6.8 102060 77
2007-11-28 08:15:12 51°16.031 2°53.364 4.4 266 6.8 102070 77
2007-11-28 08:15:17 51°16.046 2°53.351 4.9 281 6.8 102070 77
2007-11-28 08:15:21 51°16.059 2°53.341 5.2 265 6.8 102070 77
2007-11-28 08:15:27 51°16.077 2°53.324 6.6 280 6.8 102070 77
2007-11-28 08:15:32 51°16.092 2°53.311 6.9 259 6.8 102060 77
2007-11-28 08:15:37 51°16.107 2°53.296 6 282 6.8 102060 77
2007-11-28 08:15:41 51°16.12 2°53.285 6.4 262 6.8 102070 77
2007-11-28 08:15:47 51°16.138 2°53.268 6.9 285 6.8 102070 77
2007-11-28 08:15:52 51°16.153 2°53.255 5.4 269 6.8 102070 77
2007-11-28 08:15:57 51°16.169 2°53.24 3.5 285 6.8 102070 77
2007-11-28 08:16:01 51°16.181 2°53.23 4.4 262 6.8 102070 77
2007-11-28 08:16:07 51°16.199 2°53.214 4.9 281 6.8 102070 77
2007-11-28 08:16:12 51°16.215 2°53.201 5.8 270 6.8 102060 77
2007-11-28 08:16:17 51°16.23 2°53.188 4.5 285 6.8 102060 77
2007-11-28 08:16:21 51°16.243 2°53.178 5.1 265 6.9 102060 77
2007-11-28 08:16:27 51°16.262 2°53.163 4.6 281 6.9 102060 77
2007-11-28 08:16:32 51°16.277 2°53.15 6.5 263 6.9 102070 77
2007-11-28 08:16:37 51°16.293 2°53.137 5.5 283 6.9 102070 77
2007-11-28 08:16:41 51°16.305 2°53.127 4.4 262 6.9 102060 77
2007-11-28 08:16:47 51°16.323 2°53.11 5.8 285 6.9 102060 77
2007-11-28 08:16:52 51°16.338 2°53.097 7 262 6.9 102070 77
2007-11-28 08:16:57 51°16.354 2°53.083 6.2 281 6.9 102070 77
2007-11-28 08:17:01 51°16.366 2°53.072 6.5 260 6.9 102070 77
2007-11-28 08:17:07 51°16.384 2°53.056 6.6 279 6.9 102070 77
2007-11-28 08:17:12 51°16.4 2°53.042 5.2 263 6.9 102070 77
2007-11-28 08:17:17 51°16.415 2°53.029 4.8 285 6.9 102070 77
2007-11-28 08:17:21 51°16.427 2°53.017 5.5 260 6.9 102070 77
2007-11-28 08:17:27 51°16.446 2°53.001 5.4 281 6.9 102070 77
2007-11-28 08:17:32 51°16.461 2°52.987 5.5 260 6.9 102070 77
2007-11-28 08:17:37 51°16.476 2°52.974 6.1 279 6.9 102070 77
2007-11-28 08:17:41 51°16.489 2°52.963 5.4 261 6.9 102070 77
2007-11-28 08:17:47 51°16.507 2°52.947 8.6 280 6.9 102070 77
2007-11-28 08:17:52 51°16.522 2°52.933 4.4 264 6.9 102070 77
2007-11-28 08:17:57 51°16.538 2°52.92 7 286 6.9 102070 77
2007-11-28 08:18:01 51°16.55 2°52.909 5.6 265 6.9 102060 77
2007-11-28 08:18:07 51°16.568 2°52.893 5.5 280 6.9 102060 77
2007-11-28 08:18:12 51°16.584 2°52.88 5.7 262 6.9 102070 77
2007-11-28 08:18:17 51°16.599 2°52.867 4.1 287 6.9 102070 77
2007-11-28 08:18:21 51°16.612 2°52.857 6 270 6.9 102060 77
2007-11-28 08:18:27 51°16.63 2°52.841 3.9 285 6.9 102060 77
2007-11-28 08:18:32 51°16.646 2°52.829 5.9 261 6.9 102070 77
2007-11-28 08:18:37 51°16.661 2°52.816 4.1 281 6.9 102070 77
2007-11-28 08:18:41 51°16.674 2°52.806 5.1 261 6.9 102070 77
2007-11-28 08:18:47 51°16.693 2°52.792 3.9 285 6.9 102070 77
2007-11-28 08:18:52 51°16.709 2°52.78 4.1 261 6.9 102070 77
2007-11-28 08:18:57 51°16.724 2°52.769 4.8 286 6.9 102070 77
2007-11-28 08:19:01 51°16.737 2°52.76 6.1 21 6.9 102070 77
2007-11-28 08:19:07 51°16.756 2°52.747 4.7 75 6.9 102070 77
2007-11-28 08:19:12 51°16.772 2°52.737 4.6 256 6.9 102070 77
2007-11-28 08:19:17 51°16.788 2°52.726 5.1 279 6.9 102070 77
2007-11-28 08:19:21 51°16.8 2°52.718 5.8 267 6.9 102070 77
2007-11-28 08:19:27 51°16.819 2°52.706 4.6 281 6.9 102070 77
2007-11-28 08:19:32 51°16.835 2°52.696 4.9 266 6.9 102070 77
2007-11-28 08:19:37 51°16.851 2°52.686 5.5 281 6.9 102070 77
2007-11-28 08:19:41 51°16.863 2°52.678 6.1 19 7 102060 78
2007-11-28 08:19:47 51°16.882 2°52.666 5.2 283 7 102060 78
2007-11-28 08:19:52 51°16.898 2°52.655 4.9 266 7 102070 78
2007-11-28 08:19:57 51°16.914 2°52.644 7.1 282 7 102070 78
2007-11-28 08:20:01 51°16.926 2°52.635 3.3 264 7 102070 77
2007-11-28 08:20:07 51°16.946 2°52.622 5.1 280 7 102070 77
2007-11-28 08:20:12 51°16.961 2°52.611 6.1 252 7 102070 78
2007-11-28 08:20:17 51°16.977 2°52.599 6 282 7 102070 78
2007-11-28 08:20:21 51°16.989 2°52.589 6.9 262 7 102060 77
2007-11-28 08:20:27 51°17.008 2°52.574 6.3 280 7 102060 77
2007-11-28 08:20:32 51°17.023 2°52.561 5.3 263 7 102060 78
2007-11-28 08:20:37 51°17.038 2°52.548 4.9 286 7 102060 78
2007-11-28 08:20:41 51°17.05 2°52.537 4.6 262 7 102060 78
2007-11-28 08:20:47 51°17.068 2°52.521 6.4 284 7 102060 78
2007-11-28 08:20:52 51°17.083 2°52.507 7.7 255 7 102060 77
2007-11-28 08:20:57 51°17.098 2°52.494 10 281 7 102060 77
2007-11-28 08:21:01 51°17.11 2°52.483 6.9 262 7 102060 77
2007-11-28 08:21:07 51°17.128 2°52.467 4.3 309 7 102060 77
2007-11-28 08:21:12 51°17.144 2°52.454 6.4 261 6.9 102060 77
2007-11-28 08:21:17 51°17.159 2°52.44 5.3 279 6.9 102060 77
2007-11-28 08:21:21 51°17.171 2°52.429 4.5 260 6.9 102060 77
2007-11-28 08:21:27 51°17.189 2°52.414 5.5 279 6.9 102060 77
2007-11-28 08:21:32 51°17.205 2°52.4 4.5 261 6.9 102060 77
2007-11-28 08:21:37 51°17.22 2°52.388 5.6 285 6.9 102060 77
2007-11-28 08:21:41 51°17.232 2°52.377 6.2 268 6.9 102060 77
2007-11-28 08:21:47 51°17.251 2°52.361 3.9 281 6.9 102060 77
2007-11-28 08:21:52 51°17.266 2°52.348 5.5 261 7 102060 77
2007-11-28 08:21:57 51°17.282 2°52.335 4.8 279 7 102060 77
2007-11-28 08:22:01 51°17.294 2°52.325 4 262 7 102060 77
2007-11-28 08:22:07 51°17.312 2°52.309 7.5 285 7 102060 77
2007-11-28 08:22:12 51°17.328 2°52.296 7.9 254 7 102060 77
2007-11-28 08:22:17 51°17.343 2°52.283 5.9 285 7 102060 77
2007-11-28 08:22:21 51°17.356 2°52.273 5 261 7 102060 77
2007-11-28 08:22:27 51°17.374 2°52.258 5.6 282 7 102060 77
2007-11-28 08:22:32 51°17.39 2°52.246 3.9 267 7 102060 77
2007-11-28 08:22:37 51°17.405 2°52.233 5.9 284 7 102060 77
2007-11-28 08:22:41 51°17.417 2°52.223 6.2 261 7 102060 77
2007-11-28 08:22:47 51°17.434 2°52.204 9.2 281 7 102060 77
2007-11-28 08:22:52 51°17.448 2°52.187 9.8 256 7 102060 77
2007-11-28 08:22:57 51°17.461 2°52.169 9.6 284 7 102060 77
2007-11-28 08:23:01 51°17.47 2°52.153 10.2 253 7 102060 77
2007-11-28 08:23:07 51°17.484 2°52.128 9.3 285 7 102060 77
2007-11-28 08:23:12 51°17.496 2°52.107 9.9 250 7 102050 77
2007-11-28 08:23:17 51°17.507 2°52.085 10.4 280 7 102050 77
2007-11-28 08:23:21 51°17.515 2°52.067 12 249 7 102050 77
2007-11-28 08:23:27 51°17.526 2°52.039 11.7 284 7 102050 77
2007-11-28 08:23:32 51°17.535 2°52.014 10.7 24 7 102050 78
2007-11-28 08:23:37 51°17.543 2°51.99 9.7 279 7 102050 78
2007-11-28 08:23:41 51°17.549 2°51.969 11.9 26 7 102050 78
2007-11-28 08:23:47 51°17.558 2°51.939 13.4 307 7 102050 78
2007-11-28 08:23:52 51°17.564 2°51.912 12 26 7 102040 78
2007-11-28 08:23:57 51°17.571 2°51.886 12.7 281 7 102040 78
2007-11-28 08:24:01 51°17.576 2°51.865 12.6 22 7 102040 78
2007-11-28 08:24:07 51°17.583 2°51.833 8.8 283 7 102040 78
2007-11-28 08:24:12 51°17.59 2°51.807 10.2 24 7 102040 78
2007-11-28 08:24:17 51°17.596 2°51.78 12.6 283 7 102040 78
2007-11-28 08:24:21 51°17.601 2°51.759 14.2 19 7 102030 78
2007-11-28 08:24:27 51°17.608 2°51.727 12.1 284 7 102030 78
2007-11-28 08:24:32 51°17.614 2°51.7 12.5 20 7 102040 78
2007-11-28 08:24:37 51°17.621 2°51.674 13.4 284 7 102040 78
2007-11-28 08:24:41 51°17.625 2°51.652 11.7 21 7.1 102040 78
2007-11-28 08:24:47 51°17.633 2°51.621 13 285 7.1 102040 78
2007-11-28 08:24:52 51°17.64 2°51.595 13.1 21 7.1 102040 78
2007-11-28 08:24:57 51°17.647 2°51.569 8.7 284 7.1 102040 78
2007-11-28 08:25:01 51°17.653 2°51.548 10.5 20 7.1 102040 78
2007-11-28 08:25:07 51°17.662 2°51.518 11.7 286 7.1 102040 78
2007-11-28 08:25:12 51°17.669 2°51.492 10.9 18 7.1 102040 78
2007-11-28 08:25:17 51°17.677 2°51.467 11.8 286 7.1 102040 78
2007-11-28 08:25:21 51°17.684 2°51.447 10.3 25 7.1 102040 78
2007-11-28 08:25:27 51°17.693 2°51.416 13.3 285 7.1 102040 78
2007-11-28 08:25:32 51°17.701 2°51.391 13.2 21 7.1 102040 78
2007-11-28 08:25:37 51°17.709 2°51.365 13.3 284 7.1 102040 78
2007-11-28 08:25:41 51°17.715 2°51.345 12.2 22 7.1 102040 78
2007-11-28 08:25:47 51°17.723 2°51.313 9.7 303 7.1 102040 78
2007-11-28 08:25:52 51°17.73 2°51.287 13.3 20 7.1 102040 78
2007-11-28 08:25:57 51°17.737 2°51.26 10.5 278 7.1 102040 78
2007-11-28 08:26:01 51°17.742 2°51.239 13 24 7.1 102030 78
2007-11-28 08:26:07 51°17.75 2°51.207 10.1 281 7.1 102030 78
2007-11-28 08:26:12 51°17.756 2°51.18 10.4 27 7.1 102060 78
2007-11-28 08:26:17 51°17.763 2°51.153 10.4 282 7.1 102060 78
2007-11-28 08:26:21 51°17.768 2°51.132 11.9 25 7.1 102030 78
2007-11-28 08:26:27 51°17.777 2°51.1 14.5 282 7.1 102030 78
2007-11-28 08:26:32 51°17.784 2°51.074 9.4 26 7.1 102040 78
2007-11-28 08:26:37 51°17.791 2°51.047 11.6 285 7.1 102040 78
2007-11-28 08:26:41 51°17.797 2°51.026 11.1 22 7.1 102030 78
2007-11-28 08:26:47 51°17.806 2°50.995 10.1 281 7.1 102030 78
2007-11-28 08:26:52 51°17.814 2°50.968 9.6 26 7 102030 78
2007-11-28 08:26:57 51°17.821 2°50.942 12.4 282 7 102030 78
2007-11-28 08:27:01 51°17.827 2°50.921 12.7 26 7 102030 78
2007-11-28 08:27:07 51°17.836 2°50.889 10.5 281 7 102030 78
2007-11-28 08:27:12 51°17.844 2°50.863 11.6 246 7.1 102030 78
2007-11-28 08:27:17 51°17.851 2°50.837 13.5 281 7.1 102030 78
2007-11-28 08:27:21 51°17.857 2°50.816 9 28 7.1 102030 78
2007-11-28 08:27:27 51°17.866 2°50.784 12.1 279 7.1 102030 78
2007-11-28 08:27:32 51°17.874 2°50.758 12.6 24 7.1 102030 78
2007-11-28 08:27:37 51°17.882 2°50.731 10.5 284 7.1 102030 78
2007-11-28 08:27:41 51°17.888 2°50.711 12 19 7.1 102030 78
2007-11-28 08:27:47 51°17.897 2°50.679 9.3 283 7.1 102030 78
2007-11-28 08:27:52 51°17.905 2°50.653 12.6 247 7.1 102030 78
2007-11-28 08:27:57 51°17.913 2°50.627 11 284 7.1 102030 78
2007-11-28 08:28:01 51°17.92 2°50.607 13 21 7.1 102040 78
2007-11-28 08:28:07 51°17.93 2°50.576 10.1 302 7.1 102040 78
2007-11-28 08:28:12 51°17.938 2°50.549 12 21 7.1 102040 78
2007-11-28 08:28:17 51°17.946 2°50.523 12.2 279 7.1 102040 78
2007-11-28 08:28:21 51°17.952 2°50.502 12.9 23 7.1 102040 78
2007-11-28 08:28:27 51°17.962 2°50.472 11.6 303 7.1 102040 78
2007-11-28 08:28:32 51°17.971 2°50.446 14.5 248 7.1 102040 78
2007-11-28 08:28:37 51°17.979 2°50.42 12.7 281 7.1 102040 78
2007-11-28 08:28:41 51°17.985 2°50.399 14.5 22 7.1 102030 78
2007-11-28 08:28:47 51°17.995 2°50.368 10 280 7.1 102030 78
2007-11-28 08:28:52 51°18.003 2°50.342 9.9 246 7.1 102030 78
2007-11-28 08:28:57 51°18.011 2°50.316 14.2 306 7.1 102030 78
2007-11-28 08:29:02 51°18.018 2°50.289 11.5 248 7.1 102030 78
2007-11-28 08:29:07 51°18.026 2°50.264 11.3 281 7.1 102030 78
2007-11-28 08:29:12 51°18.034 2°50.237 10.8 25 7.1 102030 78
2007-11-28 08:29:17 51°18.042 2°50.211 10 307 7.1 102030 78
2007-11-28 08:29:21 51°18.048 2°50.191 12.8 21 7.1 102030 78
2007-11-28 08:29:27 51°18.057 2°50.159 10.1 283 7.1 102030 78
2007-11-28 08:29:32 51°18.065 2°50.133 10.6 21 7.1 102030 78
2007-11-28 08:29:37 51°18.073 2°50.108 12.6 308 7.1 102030 78
2007-11-28 08:29:42 51°18.081 2°50.082 12.6 247 7.1 102030 78
2007-11-28 08:29:47 51°18.089 2°50.055 11.9 286 7.1 102030 78
2007-11-28 08:29:52 51°18.097 2°50.03 12.3 24 7.1 102030 78
2007-11-28 08:29:57 51°18.105 2°50.004 9.6 280 7.1 102030 78
2007-11-28 08:30:02 51°18.113 2°49.978 11.8 248 7.1 102020 78
2007-11-28 08:30:07 51°18.121 2°49.952 11.5 308 7.1 102020 78
2007-11-28 08:30:12 51°18.129 2°49.926 9.4 248 7.2 102030 78
2007-11-28 08:30:17 51°18.137 2°49.9 12.7 282 7.2 102030 78
2007-11-28 08:30:21 51°18.144 2°49.88 13.6 245 7.2 102030 78
2007-11-28 08:30:27 51°18.153 2°49.848 14 309 7.2 102030 78
2007-11-28 08:30:32 51°18.162 2°49.822 12.5 248 7.2 102040 78
2007-11-28 08:30:37 51°18.169 2°49.796 9.6 282 7.2 102040 78
2007-11-28 08:30:41 51°18.176 2°49.776 13.1 24 7.2 102030 78
2007-11-28 08:30:47 51°18.185 2°49.744 11.2 304 7.2 102030 78
2007-11-28 08:30:52 51°18.193 2°49.718 13.6 20 7.2 102030 78
2007-11-28 08:30:57 51°18.2 2°49.691 11.1 306 7.2 102030 78
2007-11-28 08:31:01 51°18.205 2°49.67 14 24 7.2 102030 78
2007-11-28 08:31:07 51°18.213 2°49.637 11.9 281 7.2 102030 78
2007-11-28 08:31:12 51°18.219 2°49.61 13.5 25 7.2 102030 78
2007-11-28 08:31:17 51°18.225 2°49.582 11.5 305 7.2 102030 78
2007-11-28 08:31:22 51°18.231 2°49.555 13.4 23 7.2 102030 78
2007-11-28 08:31:27 51°18.237 2°49.527 14.2 280 7.2 102030 78
2007-11-28 08:31:32 51°18.243 2°49.5 14.2 22 7.2 102020 78
2007-11-28 08:31:37 51°18.249 2°49.472 13.9 305 7.2 102020 78
2007-11-28 08:31:42 51°18.255 2°49.445 10.9 24 7.2 102020 78
2007-11-28 08:31:47 51°18.261 2°49.417 11.4 284 7.2 102020 78
2007-11-28 08:31:52 51°18.267 2°49.39 13.4 19 7.2 102020 78
2007-11-28 08:31:57 51°18.273 2°49.362 13.4 306 7.2 102020 78
2007-11-28 08:32:01 51°18.278 2°49.34 14.3 20 7.2 102030 78
2007-11-28 08:32:07 51°18.285 2°49.307 10.7 282 7.2 102030 78
2007-11-28 08:32:12 51°18.291 2°49.279 9.7 24 7.2 102030 78
2007-11-28 08:32:17 51°18.297 2°49.251 12.4 304 7.2 102030 78
2007-11-28 08:32:22 51°18.303 2°49.224 10.9 25 7.2 102020 78
2007-11-28 08:32:27 51°18.309 2°49.196 11.9 304 7.2 102020 78
2007-11-28 08:32:32 51°18.315 2°49.168 12.5 244 7.2 102030 78
2007-11-28 08:32:37 51°18.321 2°49.141 10.7 280 7.2 102030 78
2007-11-28 08:32:41 51°18.325 2°49.119 10.3 25 7.2 102030 78
2007-11-28 08:32:47 51°18.333 2°49.086 13.7 308 7.2 102030 78
2007-11-28 08:32:52 51°18.339 2°49.058 13.1 24 7.2 102030 78
2007-11-28 08:32:57 51°18.345 2°49.031 11.1 281 7.2 102030 78
2007-11-28 08:33:01 51°18.349 2°49.009 11.8 25 7.3 102030 78
2007-11-28 08:33:07 51°18.356 2°48.975 14.9 306 7.3 102030 78
2007-11-28 08:33:12 51°18.362 2°48.947 16 23 7.3 102020 78
2007-11-28 08:33:17 51°18.368 2°48.919 11.2 306 7.3 102020 78
2007-11-28 08:33:21 51°18.373 2°48.897 13.8 20 7.3 102020 78
2007-11-28 08:33:27 51°18.38 2°48.863 13.8 282 7.3 102020 78
2007-11-28 08:33:32 51°18.385 2°48.835 12.2 25 7.3 102020 78
2007-11-28 08:33:37 51°18.392 2°48.807 14.3 308 7.3 102020 78
2007-11-28 08:33:42 51°18.398 2°48.779 10.8 24 7.2 102010 78
2007-11-28 08:33:47 51°18.404 2°48.751 14.9 286 7.2 102010 78
2007-11-28 08:33:52 51°18.41 2°48.723 11.1 22 7.2 102020 78
2007-11-28 08:33:57 51°18.417 2°48.696 16.5 305 7.2 102020 78
2007-11-28 08:34:01 51°18.422 2°48.674 12.2 24 7.2 102020 78
2007-11-28 08:34:07 51°18.43 2°48.64 14.7 284 7.2 102020 78
2007-11-28 08:34:12 51°18.437 2°48.612 13.1 25 7.3 102020 78
2007-11-28 08:34:17 51°18.443 2°48.584 15.6 284 7.3 102020 78
2007-11-28 08:34:22 51°18.45 2°48.556 13.7 24 7.2 102010 78
2007-11-28 08:34:27 51°18.456 2°48.528 14.9 280 7.2 102010 78
2007-11-28 08:34:32 51°18.463 2°48.501 14.2 25 7.2 102010 77
2007-11-28 08:34:37 51°18.468 2°48.473 12.2 282 7.2 102010 77
2007-11-28 08:34:41 51°18.473 2°48.451 12.4 23 7.2 102010 77
2007-11-28 08:34:47 51°18.481 2°48.417 11.1 304 7.2 102010 77
2007-11-28 08:34:52 51°18.487 2°48.388 12.2 22 7.2 102010 77
2007-11-28 08:34:57 51°18.493 2°48.36 14 281 7.2 102010 77
2007-11-28 08:35:01 51°18.498 2°48.337 10.7 28 7.2 102010 77
2007-11-28 08:35:07 51°18.506 2°48.303 11.6 308 7.2 102010 77
2007-11-28 08:35:12 51°18.512 2°48.276 14.4 25 7.2 102010 77
2007-11-28 08:35:17 51°18.519 2°48.247 14.5 281 7.2 102010 77
2007-11-28 08:35:21 51°18.524 2°48.225 13.5 20 7.2 102020 77
2007-11-28 08:35:27 51°18.533 2°48.192 11.3 283 7.2 102020 77
2007-11-28 08:35:32 51°18.539 2°48.164 14.2 22 7.2 102020 78
2007-11-28 08:35:37 51°18.546 2°48.136 10.8 307 7.2 102020 78
2007-11-28 08:35:41 51°18.551 2°48.113 14.5 24 7.2 102010 77
2007-11-28 08:35:47 51°18.558 2°48.079 11 283 7.2 102010 77
2007-11-28 08:35:52 51°18.564 2°48.051 13.9 24 7.2 102010 77
2007-11-28 08:35:57 51°18.57 2°48.023 12.3 305 7.2 102010 77
2007-11-28 08:36:02 51°18.576 2°47.994 11.1 27 7.2 102010 78
2007-11-28 08:36:07 51°18.581 2°47.966 14 286 7.2 102010 78
2007-11-28 08:36:12 51°18.587 2°47.938 11.3 20 7.2 102020 78
2007-11-28 08:36:17 51°18.593 2°47.91 15.2 304 7.2 102020 78
2007-11-28 08:36:21 51°18.597 2°47.887 16.5 23 7.2 102010 78
2007-11-28 08:36:27 51°18.604 2°47.853 15.4 283 7.2 102010 78
2007-11-28 08:36:32 51°18.609 2°47.825 12.2 20 7.3 102020 78
2007-11-28 08:36:37 51°18.615 2°47.797 11.5 303 7.3 102020 78
2007-11-28 08:36:42 51°18.62 2°47.769 13.5 24 7.2 102040 78
2007-11-28 08:36:47 51°18.626 2°47.741 13.8 286 7.2 102040 78
2007-11-28 08:36:52 51°18.631 2°47.712 14.9 26 7.2 102000 77
2007-11-28 08:36:57 51°18.637 2°47.684 10.9 305 7.2 102000 77
2007-11-28 08:37:02 51°18.643 2°47.657 14.1 22 7.2 102010 77
2007-11-28 08:37:07 51°18.648 2°47.629 11.3 306 7.2 102010 77
2007-11-28 08:37:12 51°18.654 2°47.601 13.1 21 7.2 102020 77
2007-11-28 08:37:17 51°18.659 2°47.573 11.2 286 7.2 102020 77
2007-11-28 08:37:21 51°18.664 2°47.551 14 19 7.2 102010 77
2007-11-28 08:37:27 51°18.67 2°47.517 16.4 304 7.2 102010 77
2007-11-28 08:37:32 51°18.676 2°47.489 12.3 24 7.2 102010 77
2007-11-28 08:37:37 51°18.681 2°47.461 11.6 305 7.2 102010 77
2007-11-28 08:37:41 51°18.686 2°47.439 14.2 22 7.2 102010 78
2007-11-28 08:37:47 51°18.693 2°47.405 12 303 7.2 102010 78
2007-11-28 08:37:52 51°18.698 2°47.377 14.2 22 7.2 102010 78
2007-11-28 08:37:57 51°18.704 2°47.349 11.7 302 7.2 102010 78
2007-11-28 08:38:02 51°18.709 2°47.321 12.2 243 7.2 102000 77
2007-11-28 08:38:07 51°18.714 2°47.293 11.3 285 7.2 102000 77
2007-11-28 08:38:12 51°18.719 2°47.265 14.2 26 7.2 102010 77
2007-11-28 08:38:17 51°18.725 2°47.236 15.2 309 7.2 102010 77
2007-11-28 08:38:21 51°18.729 2°47.214 14.8 23 7.2 102010 77
2007-11-28 08:38:27 51°18.735 2°47.18 14.9 282 7.2 102010 77
2007-11-28 08:38:32 51°18.741 2°47.152 12.3 22 7.2 102010 78
2007-11-28 08:38:37 51°18.746 2°47.123 12 301 7.2 102010 78
2007-11-28 08:38:42 51°18.752 2°47.095 10.5 24 7.2 102000 78
2007-11-28 08:38:47 51°18.757 2°47.067 13.4 282 7.2 102000 78
2007-11-28 08:38:52 51°18.762 2°47.038 13.9 22 7.2 102010 77
2007-11-28 08:38:57 51°18.768 2°47.01 13.8 305 7.2 102010 77
2007-11-28 08:39:02 51°18.773 2°46.981 13.5 21 7.2 102010 77
2007-11-28 08:39:07 51°18.778 2°46.953 14.8 307 7.2 102010 77
2007-11-28 08:39:12 51°18.784 2°46.925 14 22 7.2 102010 78
2007-11-28 08:39:17 51°18.789 2°46.896 10.6 281 7.2 102010 78
2007-11-28 08:39:21 51°18.793 2°46.874 12.7 25 7.2 102010 78
2007-11-28 08:39:27 51°18.799 2°46.84 13.7 302 7.2 102010 78
2007-11-28 08:39:32 51°18.805 2°46.811 13.9 23 7.2 102010 78
2007-11-28 08:39:37 51°18.809 2°46.782 12.7 285 7.2 102010 78
2007-11-28 08:39:41 51°18.814 2°46.76 12.4 24 7.2 102000 78
2007-11-28 08:39:47 51°18.82 2°46.726 12.6 307 7.2 102000 78
2007-11-28 08:39:52 51°18.825 2°46.697 14.7 22 7.2 102010 78
2007-11-28 08:39:57 51°18.83 2°46.669 11.2 306 7.2 102010 78
2007-11-28 08:40:01 51°18.834 2°46.646 14.2 23 7.2 102010 78
2007-11-28 08:40:07 51°18.841 2°46.612 14.8 283 7.2 102010 78
2007-11-28 08:40:12 51°18.847 2°46.584 12.9 20 7.2 102010 78
2007-11-28 08:40:17 51°18.852 2°46.555 12.8 283 7.2 102010 78
2007-11-28 08:40:21 51°18.857 2°46.533 9.8 23 7.2 102010 78
2007-11-28 08:40:27 51°18.863 2°46.499 11 282 7.2 102010 78
2007-11-28 08:40:32 51°18.869 2°46.47 13.1 26 7.2 102010 78
2007-11-28 08:40:37 51°18.875 2°46.442 14.4 309 7.2 102010 78
2007-11-28 08:40:42 51°18.88 2°46.413 11.8 25 7.2 102020 78
2007-11-28 08:40:47 51°18.887 2°46.385 14.5 282 7.2 102020 78
2007-11-28 08:40:52 51°18.892 2°46.357 10.4 25 7.2 102010 78
2007-11-28 08:40:57 51°18.898 2°46.329 13.2 303 7.2 102010 78
2007-11-28 08:41:01 51°18.902 2°46.306 12.5 28 7.2 102010 78
2007-11-28 08:41:07 51°18.908 2°46.272 12 286 7.2 102010 78
2007-11-28 08:41:12 51°18.914 2°46.244 15.8 20 7.2 102000 78
2007-11-28 08:41:17 51°18.919 2°46.215 11.6 282 7.2 102000 78
2007-11-28 08:41:22 51°18.925 2°46.187 11.6 20 7.3 102010 78
2007-11-28 08:41:27 51°18.931 2°46.159 15.7 309 7.3 102010 78
2007-11-28 08:41:32 51°18.937 2°46.131 14.2 21 7.2 102010 78
2007-11-28 08:41:37 51°18.942 2°46.103 13 282 7.2 102010 78
2007-11-28 08:41:42 51°18.948 2°46.074 12 22 7.2 102000 78
2007-11-28 08:41:47 51°18.954 2°46.046 14 302 7.2 102000 78
2007-11-28 08:41:52 51°18.96 2°46.018 14.7 23 7.2 102010 78
2007-11-28 08:41:57 51°18.966 2°45.99 14.3 282 7.2 102010 78
2007-11-28 08:42:01 51°18.97 2°45.968 15 23 7.2 102010 78
2007-11-28 08:42:07 51°18.977 2°45.934 13.5 309 7.2 102010 78
2007-11-28 08:42:12 51°18.983 2°45.906 14 25 7.2 102020 78
2007-11-28 08:42:17 51°18.989 2°45.878 14.1 306 7.2 102020 78
2007-11-28 08:42:21 51°18.993 2°45.856 10.8 25 7.2 102000 78
2007-11-28 08:42:27 51°19 2°45.822 11.2 279 7.2 102000 78
2007-11-28 08:42:32 51°19.005 2°45.794 14.6 21 7.2 102000 78
2007-11-28 08:42:37 51°19.011 2°45.766 14 305 7.2 102000 78
2007-11-28 08:42:41 51°19.015 2°45.743 16.1 23 7.3 102010 78
2007-11-28 08:42:47 51°19.022 2°45.71 15.2 283 7.3 102010 78
2007-11-28 08:42:52 51°19.027 2°45.681 11.3 26 7.3 102000 78
2007-11-28 08:42:57 51°19.032 2°45.653 13 310 7.3 102000 78
2007-11-28 08:43:02 51°19.038 2°45.625 14.6 23 7.3 102010 78
2007-11-28 08:43:07 51°19.044 2°45.597 14.3 282 7.3 102010 78
2007-11-28 08:43:12 51°19.05 2°45.569 11.2 26 7.3 101990 78
2007-11-28 08:43:17 51°19.055 2°45.541 12.4 284 7.3 101990 78
2007-11-28 08:43:22 51°19.061 2°45.513 12.1 23 7.3 102000 78
2007-11-28 08:43:27 51°19.067 2°45.485 12.2 280 7.3 102000 78
2007-11-28 08:43:32 51°19.073 2°45.457 11 23 7.3 102000 78
2007-11-28 08:43:37 51°19.078 2°45.429 10.9 305 7.3 102000 78
2007-11-28 08:43:42 51°19.084 2°45.401 10.9 23 7.3 102000 78
2007-11-28 08:43:47 51°19.089 2°45.372 11.5 304 7.3 102000 78
2007-11-28 08:43:52 51°19.095 2°45.344 10.7 25 7.3 101990 78
2007-11-28 08:43:57 51°19.1 2°45.316 10.6 282 7.3 101990 78
2007-11-28 08:44:01 51°19.105 2°45.294 13.5 23 7.3 102010 78
2007-11-28 08:44:07 51°19.111 2°45.26 14.6 303 7.3 102010 78
2007-11-28 08:44:12 51°19.117 2°45.231 12.4 25 7.3 102000 78
2007-11-28 08:44:17 51°19.123 2°45.203 14 279 7.3 102000 78
2007-11-28 08:44:21 51°19.127 2°45.181 13.5 24 7.3 102020 78
2007-11-28 08:44:27 51°19.135 2°45.147 11.6 303 7.3 102020 78
2007-11-28 08:44:32 51°19.141 2°45.119 13.7 24 7.3 102010 78
2007-11-28 08:44:37 51°19.147 2°45.091 11.8 306 7.3 102010 78
2007-11-28 08:44:41 51°19.152 2°45.069 13 24 7.3 102010 78
2007-11-28 08:44:47 51°19.159 2°45.035 11.7 307 7.3 102010 78
2007-11-28 08:44:52 51°19.165 2°45.007 14.7 21 7.3 102000 78
2007-11-28 08:44:57 51°19.17 2°44.979 15.1 304 7.3 102000 78
2007-11-28 08:45:02 51°19.176 2°44.95 12.9 23 7.3 102000 78
2007-11-28 08:45:07 51°19.182 2°44.922 15.1 281 7.3 102000 78
2007-11-28 08:45:12 51°19.187 2°44.893 11.7 25 7.3 102000 78
2007-11-28 08:45:17 51°19.193 2°44.865 10.8 286 7.3 102000 78
2007-11-28 08:45:22 51°19.198 2°44.836 10.5 25 7.3 102000 78
2007-11-28 08:45:27 51°19.204 2°44.807 12.6 281 7.3 102000 78
2007-11-28 08:45:32 51°19.21 2°44.778 11.5 23 7.3 101990 78
2007-11-28 08:45:37 51°19.216 2°44.749 14.7 306 7.3 101990 78
2007-11-28 08:45:41 51°19.22 2°44.726 14.2 22 7.3 102010 78
2007-11-28 08:45:47 51°19.228 2°44.691 12.1 304 7.3 102010 78
2007-11-28 08:45:52 51°19.233 2°44.662 11.7 24 7.3 102000 78
2007-11-28 08:45:57 51°19.239 2°44.633 13 286 7.3 102000 78
2007-11-28 08:46:02 51°19.246 2°44.605 15.1 22 7.3 101990 78
2007-11-28 08:46:07 51°19.251 2°44.576 12.7 303 7.3 101990 78
2007-11-28 08:46:12 51°19.257 2°44.547 11.3 26 7.3 102000 78
2007-11-28 08:46:17 51°19.263 2°44.519 15.5 285 7.3 102000 78
2007-11-28 08:46:21 51°19.269 2°44.496 15.7 24 7.3 102000 78
2007-11-28 08:46:27 51°19.276 2°44.462 14.2 306 7.3 102000 78
2007-11-28 08:46:32 51°19.282 2°44.434 11.3 24 7.3 101990 78
2007-11-28 08:46:37 51°19.287 2°44.406 12.3 284 7.3 101990 78
2007-11-28 08:46:41 51°19.292 2°44.383 12.6 19 7.3 101990 78
2007-11-28 08:46:47 51°19.299 2°44.349 15.8 306 7.3 101990 78
2007-11-28 08:46:52 51°19.305 2°44.32 16.1 26 7.3 101990 78
2007-11-28 08:46:57 51°19.31 2°44.292 12.2 303 7.3 101990 78
2007-11-28 08:47:01 51°19.314 2°44.269 14.9 22 7.3 102010 78
2007-11-28 08:47:07 51°19.321 2°44.235 12.2 283 7.3 102010 78
2007-11-28 08:47:12 51°19.327 2°44.207 14.3 25 7.3 101990 78
2007-11-28 08:47:17 51°19.332 2°44.178 11.2 279 7.3 101990 78
2007-11-28 08:47:22 51°19.338 2°44.15 11.2 28 7.3 101990 78
2007-11-28 08:47:27 51°19.344 2°44.121 14.3 282 7.3 101990 78
2007-11-28 08:47:32 51°19.349 2°44.093 14.7 24 7.3 101990 78
2007-11-28 08:47:37 51°19.355 2°44.064 13.2 305 7.3 101990 78
2007-11-28 08:47:42 51°19.36 2°44.036 13.2 23 7.3 102000 78
2007-11-28 08:47:47 51°19.366 2°44.008 15.3 286 7.3 102000 78
2007-11-28 08:47:52 51°19.371 2°43.98 14.5 23 7.3 102000 78
2007-11-28 08:47:57 51°19.377 2°43.951 10.2 279 7.3 102000 78
2007-11-28 08:48:02 51°19.382 2°43.923 12.7 26 7.3 102000 78
2007-11-28 08:48:07 51°19.388 2°43.895 11.9 306 7.3 102000 78
2007-11-28 08:48:12 51°19.393 2°43.867 11.3 23 7.3 102000 78
2007-11-28 08:48:17 51°19.399 2°43.838 11.2 286 7.3 102000 78
2007-11-28 08:48:21 51°19.403 2°43.816 13.1 24 7.3 102000 78
2007-11-28 08:48:27 51°19.41 2°43.782 13.1 307 7.3 102000 78
2007-11-28 08:48:32 51°19.416 2°43.753 13.3 24 7.3 102010 78
2007-11-28 08:48:37 51°19.421 2°43.725 11.6 279 7.3 102010 78
2007-11-28 08:48:41 51°19.426 2°43.703 14.1 27 7.3 102010 78
2007-11-28 08:48:47 51°19.433 2°43.668 14.1 309 7.3 102010 78
2007-11-28 08:48:52 51°19.438 2°43.64 11.2 26 7.3 102010 79
2007-11-28 08:48:57 51°19.444 2°43.611 13.4 306 7.3 102010 79
2007-11-28 08:49:01 51°19.449 2°43.589 12 22 7.4 102010 79
2007-11-28 08:49:07 51°19.455 2°43.555 10.9 305 7.4 102010 79
2007-11-28 08:49:12 51°19.461 2°43.527 13.8 24 7.3 102000 79
2007-11-28 08:49:17 51°19.467 2°43.498 13.4 279 7.3 102000 79
2007-11-28 08:49:22 51°19.472 2°43.47 12.8 20 7.3 102000 78
2007-11-28 08:49:27 51°19.478 2°43.442 10.5 284 7.3 102000 78
2007-11-28 08:49:32 51°19.484 2°43.413 13.1 23 7.3 102010 78
2007-11-28 08:49:37 51°19.49 2°43.386 11.2 304 7.3 102010 78
2007-11-28 08:49:42 51°19.496 2°43.357 11.8 24 7.3 102000 78
2007-11-28 08:49:47 51°19.502 2°43.329 13.5 286 7.3 102000 78
2007-11-28 08:49:52 51°19.508 2°43.301 14 19 7.3 102010 79
2007-11-28 08:49:57 51°19.514 2°43.273 11.3 304 7.3 102010 79
2007-11-28 08:50:01 51°19.518 2°43.25 12.1 24 7.3 102000 79
2007-11-28 08:50:07 51°19.526 2°43.217 11.9 282 7.3 102000 79
2007-11-28 08:50:12 51°19.531 2°43.189 14.2 22 7.3 102000 79
2007-11-28 08:50:17 51°19.537 2°43.161 10 278 7.3 102000 79
2007-11-28 08:50:22 51°19.542 2°43.132 10.9 25 7.3 102000 79
2007-11-28 08:50:27 51°19.548 2°43.104 11.1 305 7.3 102000 79
2007-11-28 08:50:32 51°19.554 2°43.076 11.1 244 7.3 102000 78
2007-11-28 08:50:37 51°19.56 2°43.048 13.2 279 7.3 102000 78
2007-11-28 08:50:42 51°19.566 2°43.02 13.4 26 7.3 102000 78
2007-11-28 08:50:47 51°19.572 2°42.992 11.4 309 7.3 102000 78
2007-11-28 08:50:52 51°19.578 2°42.964 10.2 23 7.3 102010 79
2007-11-28 08:50:57 51°19.583 2°42.936 9.3 280 7.3 102010 79
2007-11-28 08:51:01 51°19.588 2°42.914 13.5 23 7.3 102000 79
2007-11-28 08:51:07 51°19.595 2°42.88 13.7 308 7.3 102000 79
2007-11-28 08:51:12 51°19.601 2°42.852 11.6 25 7.3 102000 79
2007-11-28 08:51:17 51°19.607 2°42.824 12.2 284 7.3 102000 79
2007-11-28 08:51:21 51°19.612 2°42.802 15.5 20 7.4 102010 79
2007-11-28 08:51:27 51°19.619 2°42.768 15.1 305 7.4 102010 79
2007-11-28 08:51:32 51°19.625 2°42.74 14.1 25 7.4 102010 79
2007-11-28 08:51:37 51°19.63 2°42.712 14.3 304 7.4 102010 79
2007-11-28 08:51:42 51°19.636 2°42.684 14.1 21 7.3 102010 79
2007-11-28 08:51:47 51°19.642 2°42.656 11.3 281 7.3 102010 79
2007-11-28 08:51:52 51°19.648 2°42.628 11.6 19 7.3 102000 79
2007-11-28 08:51:57 51°19.654 2°42.6 15 306 7.3 102000 79
2007-11-28 08:52:01 51°19.658 2°42.578 14.4 20 7.4 102000 79
2007-11-28 08:52:07 51°19.665 2°42.544 14.6 282 7.4 102000 79
2007-11-28 08:52:12 51°19.671 2°42.516 14.1 23 7.4 102000 79
2007-11-28 08:52:17 51°19.676 2°42.488 14.5 282 7.4 102000 79
2007-11-28 08:52:22 51°19.681 2°42.46 11.2 20 7.4 102000 79
2007-11-28 08:52:27 51°19.687 2°42.432 14.2 282 7.4 102000 79
2007-11-28 08:52:32 51°19.692 2°42.404 11.8 26 7.4 101990 79
2007-11-28 08:52:37 51°19.698 2°42.376 13 309 7.4 101990 79
2007-11-28 08:52:41 51°19.702 2°42.353 12.9 23 7.4 102000 79
2007-11-28 08:52:47 51°19.709 2°42.319 11 302 7.4 102000 79
2007-11-28 08:52:52 51°19.714 2°42.291 12.3 27 7.4 102000 79
2007-11-28 08:52:57 51°19.72 2°42.263 16.6 283 7.4 102000 79
2007-11-28 08:53:02 51°19.725 2°42.235 15.7 24 7.4 102000 79
2007-11-28 08:53:07 51°19.731 2°42.207 14.9 302 7.4 102000 79
2007-11-28 08:53:12 51°19.736 2°42.179 14.4 22 7.4 101990 79
2007-11-28 08:53:17 51°19.742 2°42.151 15.9 -999 7.4 101990 79
2007-11-28 08:53:21 51°19.746 2°42.128 12.3 23 7.4 101990 79
2007-11-28 08:53:27 51°19.753 2°42.095 13.7 307 7.4 101990 79
2007-11-28 08:53:32 51°19.758 2°42.066 14.6 24 7.4 101990 79
2007-11-28 08:53:37 51°19.764 2°42.038 13.6 309 7.4 101990 79
2007-11-28 08:53:41 51°19.768 2°42.015 11.2 23 7.4 101990 78
2007-11-28 08:53:47 51°19.775 2°41.981 11.4 279 7.4 101990 78
2007-11-28 08:53:52 51°19.781 2°41.953 11.5 27 7.4 102000 78
2007-11-28 08:53:57 51°19.786 2°41.925 16.5 307 7.4 102000 78
2007-11-28 08:54:01 51°19.791 2°41.902 14.5 23 7.4 101990 78
2007-11-28 08:54:07 51°19.797 2°41.868 11.2 308 7.4 101990 78
2007-11-28 08:54:12 51°19.803 2°41.84 14.2 21 7.4 101990 79
2007-11-28 08:54:17 51°19.808 2°41.811 15.3 303 7.4 101990 79
2007-11-28 08:54:21 51°19.813 2°41.789 12.3 25 7.4 102000 79
2007-11-28 08:54:27 51°19.82 2°41.755 12.4 308 7.4 102000 79
2007-11-28 08:54:32 51°19.825 2°41.726 11.5 23 7.4 101990 79
2007-11-28 08:54:37 51°19.83 2°41.697 11.6 308 7.4 101990 79
2007-11-28 08:54:42 51°19.836 2°41.669 11.5 23 7.4 101990 79
2007-11-28 08:54:47 51°19.842 2°41.64 10.7 306 7.4 101990 79
2007-11-28 08:54:52 51°19.848 2°41.612 11.3 26 7.4 101990 78
2007-11-28 08:54:57 51°19.853 2°41.583 11.7 304 7.4 101990 78
2007-11-28 08:55:01 51°19.858 2°41.561 14.6 23 7.4 101990 79
2007-11-28 08:55:07 51°19.864 2°41.526 13.2 304 7.4 101990 79
2007-11-28 08:55:12 51°19.87 2°41.498 12.8 25 7.4 102000 79
2007-11-28 08:55:17 51°19.875 2°41.469 14.1 307 7.4 102000 79
2007-11-28 08:55:22 51°19.882 2°41.441 13.8 21 7.4 101990 79
2007-11-28 08:55:27 51°19.887 2°41.412 11.4 305 7.4 101990 79
2007-11-28 08:55:32 51°19.893 2°41.383 13.3 24 7.4 101990 79
2007-11-28 08:55:37 51°19.898 2°41.355 13.1 307 7.4 101990 79
2007-11-28 08:55:41 51°19.903 2°41.332 14.8 23 7.4 102000 79
2007-11-28 08:55:47 51°19.91 2°41.298 15.6 307 7.4 102000 79
2007-11-28 08:55:52 51°19.916 2°41.269 14.2 25 7.4 101990 79
2007-11-28 08:55:57 51°19.922 2°41.241 14.7 307 7.4 101990 79
2007-11-28 08:56:01 51°19.927 2°41.218 12.3 22 7.4 101990 79
2007-11-28 08:56:07 51°19.933 2°41.183 14.8 305 7.4 101990 79
2007-11-28 08:56:12 51°19.939 2°41.155 14.8 22 7.4 101990 79
2007-11-28 08:56:17 51°19.945 2°41.126 13.9 305 7.4 101990 79
2007-11-28 08:56:21 51°19.949 2°41.103 13.1 24 7.4 101990 79
2007-11-28 08:56:27 51°19.955 2°41.068 11.9 307 7.4 101990 79
2007-11-28 08:56:32 51°19.96 2°41.039 13.1 21 7.5 101980 79
2007-11-28 08:56:37 51°19.965 2°41.01 14.1 307 7.5 101980 79
2007-11-28 08:56:41 51°19.969 2°40.987 11.3 24 7.5 101980 79
2007-11-28 08:56:47 51°19.975 2°40.952 14.7 307 7.5 101980 79
2007-11-28 08:56:52 51°19.979 2°40.922 13.4 26 7.5 101990 79
2007-11-28 08:56:57 51°19.984 2°40.893 11.8 303 7.5 101990 79
2007-11-28 08:57:01 51°19.988 2°40.869 13.8 23 7.5 101990 79
2007-11-28 08:57:07 51°19.993 2°40.834 14.5 308 7.5 101990 79
2007-11-28 08:57:12 51°19.998 2°40.804 12.9 20 7.5 101980 79
2007-11-28 08:57:17 51°20.002 2°40.775 12.8 307 7.5 101980 79
2007-11-28 08:57:22 51°20.007 2°40.746 16.1 26 7.5 101980 79
2007-11-28 08:57:27 51°20.012 2°40.716 14 308 7.5 101980 79
2007-11-28 08:57:32 51°20.017 2°40.687 12.7 20 7.5 101970 79
2007-11-28 08:57:37 51°20.021 2°40.657 15.5 308 7.5 101970 79
2007-11-28 08:57:41 51°20.025 2°40.634 15.8 20 7.5 101970 78
2007-11-28 08:57:47 51°20.03 2°40.598 11.7 308 7.5 101970 78
2007-11-28 08:57:52 51°20.035 2°40.569 14.1 24 7.5 101980 78
2007-11-28 08:57:57 51°20.039 2°40.539 10.1 303 7.5 101980 78
2007-11-28 08:58:01 51°20.043 2°40.515 11.4 25 7.5 101980 78
2007-11-28 08:58:07 51°20.048 2°40.48 15.7 305 7.5 101980 78
2007-11-28 08:58:12 51°20.052 2°40.45 15.6 26 7.5 101980 79
2007-11-28 08:58:17 51°20.057 2°40.421 12.8 309 7.5 101980 79
2007-11-28 08:58:21 51°20.061 2°40.398 14.9 22 7.5 101980 79
2007-11-28 08:58:27 51°20.066 2°40.362 12.7 306 7.5 101980 79
2007-11-28 08:58:32 51°20.07 2°40.333 12.9 23 7.5 101980 79
2007-11-28 08:58:37 51°20.074 2°40.304 12.6 306 7.5 101980 79
2007-11-28 08:58:41 51°20.078 2°40.281 13.1 22 7.5 101980 79
2007-11-28 08:58:47 51°20.083 2°40.246 14.8 306 7.5 101980 79
2007-11-28 08:58:52 51°20.088 2°40.217 14.8 23 7.5 101980 79
2007-11-28 08:58:57 51°20.093 2°40.188 15.1 305 7.5 101980 79
2007-11-28 08:59:01 51°20.096 2°40.164 12.3 24 7.5 101990 79
2007-11-28 08:59:07 51°20.102 2°40.13 14.8 308 7.5 101990 79
2007-11-28 08:59:12 51°20.106 2°40.101 11.2 24 7.5 101980 79
2007-11-28 08:59:17 51°20.111 2°40.072 14.6 306 7.5 101980 79
2007-11-28 08:59:22 51°20.115 2°40.043 15.2 22 7.5 101980 79
2007-11-28 08:59:27 51°20.12 2°40.014 13.5 310 7.5 101980 79
2007-11-28 08:59:32 51°20.124 2°39.984 10.8 26 7.5 101980 79
2007-11-28 08:59:37 51°20.128 2°39.956 14 307 7.5 101980 79
2007-11-28 08:59:41 51°20.131 2°39.932 13.1 23 7.5 101980 79
2007-11-28 08:59:47 51°20.136 2°39.897 11.8 305 7.5 101980 79
2007-11-28 08:59:52 51°20.14 2°39.868 14.7 21 7.5 101980 79
2007-11-28 08:59:57 51°20.144 2°39.84 13.1 306 7.5 101980 79
2007-11-28 09:00:02 51°20.148 2°39.81 14.9 22 7.5 101990 79
2007-11-28 09:00:07 51°20.152 2°39.782 12.8 307 7.5 101990 79
2007-11-28 09:00:12 51°20.157 2°39.753 11.9 22 7.5 101970 79
2007-11-28 09:00:17 51°20.16 2°39.724 11.2 306 7.5 101970 79
2007-11-28 09:00:21 51°20.164 2°39.7 14.7 20 7.5 101980 79
2007-11-28 09:00:27 51°20.168 2°39.666 14.9 306 7.5 101980 79
2007-11-28 09:00:32 51°20.172 2°39.636 12.2 25 7.5 101960 79
2007-11-28 09:00:37 51°20.177 2°39.608 15.1 307 7.5 101960 79
2007-11-28 09:00:41 51°20.18 2°39.584 12 24 7.5 101980 79
2007-11-28 09:00:47 51°20.185 2°39.55 11.3 308 7.5 101980 79
2007-11-28 09:00:52 51°20.19 2°39.521 14.6 22 7.5 101980 79
2007-11-28 09:00:57 51°20.194 2°39.492 14 305 7.5 101980 79
2007-11-28 09:01:02 51°20.198 2°39.462 13.5 23 7.5 101970 79
2007-11-28 09:01:07 51°20.202 2°39.434 12.1 304 7.5 101970 79
2007-11-28 09:01:12 51°20.206 2°39.405 14.8 25 7.6 101980 79
2007-11-28 09:01:17 51°20.211 2°39.376 14.1 305 7.6 101980 79
2007-11-28 09:01:22 51°20.215 2°39.347 12.5 26 7.5 101980 79
2007-11-28 09:01:27 51°20.22 2°39.318 14.2 310 7.5 101980 79
2007-11-28 09:01:32 51°20.224 2°39.288 13.7 24 7.6 101980 79
2007-11-28 09:01:37 51°20.228 2°39.259 11.3 304 7.6 101980 79
2007-11-28 09:01:41 51°20.231 2°39.236 14.8 20 7.6 101980 79
2007-11-28 09:01:47 51°20.236 2°39.201 16.3 306 7.6 101980 79
2007-11-28 09:01:52 51°20.241 2°39.172 15.6 23 7.6 101980 79
2007-11-28 09:01:57 51°20.245 2°39.143 13.7 305 7.6 101980 79
2007-11-28 09:02:01 51°20.248 2°39.12 15.5 21 7.6 101970 79
2007-11-28 09:02:07 51°20.253 2°39.085 14.7 308 7.6 101970 79
2007-11-28 09:02:12 51°20.257 2°39.056 15.1 21 7.5 101960 79
2007-11-28 09:02:17 51°20.262 2°39.027 15.1 284 7.5 101960 79
2007-11-28 09:02:21 51°20.265 2°39.003 14.9 22 7.5 101970 79
2007-11-28 09:02:27 51°20.27 2°38.969 13.4 307 7.5 101970 79
2007-11-28 09:02:32 51°20.274 2°38.94 12.2 24 7.6 101980 79
2007-11-28 09:02:37 51°20.278 2°38.911 16.2 305 7.6 101980 79
2007-11-28 09:02:41 51°20.281 2°38.888 12.5 23 7.6 101980 79
2007-11-28 09:02:47 51°20.286 2°38.853 16.6 308 7.6 101980 79
2007-11-28 09:02:52 51°20.29 2°38.824 12.1 24 7.5 101970 79
2007-11-28 09:02:57 51°20.294 2°38.796 14.4 305 7.5 101970 79
2007-11-28 09:03:01 51°20.298 2°38.773 12.6 22 7.6 101960 79
2007-11-28 09:03:07 51°20.302 2°38.739 12.7 309 7.6 101960 79
2007-11-28 09:03:12 51°20.306 2°38.71 15.2 23 7.5 101970 79
2007-11-28 09:03:17 51°20.31 2°38.682 13.8 305 7.5 101970 79
2007-11-28 09:03:21 51°20.313 2°38.659 12.9 25 7.6 101980 79
2007-11-28 09:03:27 51°20.318 2°38.624 11.7 303 7.6 101980 79
2007-11-28 09:03:32 51°20.322 2°38.595 12.5 24 7.6 102000 79
2007-11-28 09:03:37 51°20.326 2°38.566 15.1 305 7.6 102000 79
2007-11-28 09:03:42 51°20.331 2°38.538 14.6 22 7.6 101980 79
2007-11-28 09:03:47 51°20.335 2°38.509 15 306 7.6 101980 79
2007-11-28 09:03:52 51°20.339 2°38.48 14.5 26 7.6 101980 79
2007-11-28 09:03:57 51°20.343 2°38.451 11.4 306 7.6 101980 79
2007-11-28 09:04:01 51°20.347 2°38.428 14.5 21 7.6 101980 79
2007-11-28 09:04:07 51°20.352 2°38.393 13.2 310 7.6 101980 79
2007-11-28 09:04:12 51°20.356 2°38.364 13.3 25 7.6 101970 79
2007-11-28 09:04:17 51°20.36 2°38.335 12.4 278 7.6 101970 79
2007-11-28 09:04:22 51°20.364 2°38.306 13.8 25 7.6 101970 79
2007-11-28 09:04:27 51°20.368 2°38.277 14.1 308 7.6 101970 79
2007-11-28 09:04:32 51°20.373 2°38.249 13.1 26 7.6 101990 79
2007-11-28 09:04:37 51°20.377 2°38.22 12.4 305 7.6 101990 79
2007-11-28 09:04:41 51°20.381 2°38.197 12 24 7.6 101980 79
2007-11-28 09:04:47 51°20.386 2°38.162 11.7 304 7.6 101980 79
2007-11-28 09:04:52 51°20.39 2°38.133 14.3 24 7.6 101980 80
2007-11-28 09:04:57 51°20.395 2°38.104 11.3 303 7.6 101980 80
2007-11-28 09:05:01 51°20.398 2°38.081 15.1 22 7.6 101970 80
2007-11-28 09:05:07 51°20.403 2°38.046 11.9 303 7.6 101970 80
2007-11-28 09:05:12 51°20.407 2°38.018 10.8 28 7.6 101960 79
2007-11-28 09:05:17 51°20.412 2°37.988 15.1 306 7.6 101960 79
2007-11-28 09:05:21 51°20.415 2°37.965 11.9 22 7.6 101980 79
2007-11-28 09:05:27 51°20.421 2°37.931 13.9 310 7.6 101980 79
2007-11-28 09:05:32 51°20.425 2°37.902 11.7 22 7.6 101970 79
2007-11-28 09:05:37 51°20.429 2°37.873 14.5 308 7.6 101970 79
2007-11-28 09:05:42 51°20.433 2°37.844 14.8 25 7.6 101970 79
2007-11-28 09:05:47 51°20.438 2°37.814 12.4 305 7.6 101970 79
2007-11-28 09:05:52 51°20.442 2°37.785 13.5 22 7.6 101980 79
2007-11-28 09:05:57 51°20.446 2°37.756 15.7 305 7.6 101980 79
2007-11-28 09:06:01 51°20.45 2°37.733 12.2 27 7.6 101970 79
2007-11-28 09:06:07 51°20.455 2°37.699 15 305 7.6 101970 79
2007-11-28 09:06:12 51°20.46 2°37.67 14 27 7.6 101970 79
2007-11-28 09:06:17 51°20.464 2°37.641 10.1 279 7.6 101970 79
2007-11-28 09:06:21 51°20.467 2°37.617 15.4 24 7.6 101960 79
2007-11-28 09:06:27 51°20.473 2°37.583 15.2 309 7.6 101960 79
2007-11-28 09:06:32 51°20.477 2°37.554 17.4 20 7.6 101970 79
2007-11-28 09:06:37 51°20.481 2°37.525 14.1 305 7.6 101970 79
2007-11-28 09:06:42 51°20.486 2°37.496 16.2 22 7.6 101980 79
2007-11-28 09:06:47 51°20.49 2°37.467 12.4 310 7.6 101980 79
2007-11-28 09:06:52 51°20.494 2°37.438 16.6 23 7.6 101970 79
2007-11-28 09:06:57 51°20.498 2°37.41 16.4 307 7.6 101970 79
2007-11-28 09:07:01 51°20.502 2°37.386 13.2 23 7.6 101960 79
2007-11-28 09:07:07 51°20.507 2°37.351 13.7 309 7.6 101960 79
2007-11-28 09:07:12 51°20.512 2°37.322 12.3 23 7.6 101970 79
2007-11-28 09:07:17 51°20.516 2°37.293 15.5 309 7.6 101970 79
2007-11-28 09:07:21 51°20.52 2°37.27 16.7 22 7.6 101960 79
2007-11-28 09:07:27 51°20.525 2°37.236 14.1 306 7.6 101960 79
2007-11-28 09:07:32 51°20.53 2°37.206 12.9 24 7.6 101960 79
2007-11-28 09:07:37 51°20.534 2°37.177 12.5 303 7.6 101960 79
2007-11-28 09:07:41 51°20.537 2°37.154 15.6 23 7.6 101960 78
2007-11-28 09:07:47 51°20.542 2°37.119 14.7 308 7.6 101960 78
2007-11-28 09:07:52 51°20.547 2°37.09 11.2 23 7.6 101960 79
2007-11-28 09:07:57 51°20.551 2°37.061 14.5 308 7.6 101960 79
2007-11-28 09:08:01 51°20.555 2°37.038 11 23 7.6 101960 79
2007-11-28 09:08:07 51°20.56 2°37.003 11.1 306 7.6 101960 79
2007-11-28 09:08:12 51°20.564 2°36.974 14.2 22 7.6 101960 79
2007-11-28 09:08:17 51°20.568 2°36.945 15.8 280 7.6 101960 79
2007-11-28 09:08:21 51°20.572 2°36.922 16.1 25 7.7 101970 79
2007-11-28 09:08:27 51°20.577 2°36.887 14.8 305 7.7 101970 79
2007-11-28 09:08:32 51°20.581 2°36.858 14.7 22 7.7 101970 79
2007-11-28 09:08:37 51°20.585 2°36.829 15.1 309 7.7 101970 79
2007-11-28 09:08:42 51°20.589 2°36.8 11.7 23 7.7 101960 79
2007-11-28 09:08:47 51°20.593 2°36.771 12.3 305 7.7 101960 79
2007-11-28 09:08:52 51°20.598 2°36.742 13 24 7.7 101960 79
2007-11-28 09:08:57 51°20.602 2°36.714 12.9 309 7.7 101960 79
2007-11-28 09:09:01 51°20.606 2°36.69 11.9 22 7.7 101970 79
2007-11-28 09:09:07 51°20.61 2°36.655 11.9 306 7.7 101970 79
2007-11-28 09:09:12 51°20.615 2°36.626 12.1 21 7.7 101960 79
2007-11-28 09:09:17 51°20.619 2°36.597 15.7 307 7.7 101960 79
2007-11-28 09:09:22 51°20.623 2°36.568 11.4 19 7.7 101960 79
2007-11-28 09:09:27 51°20.627 2°36.539 12.8 310 7.7 101960 79
2007-11-28 09:09:32 51°20.631 2°36.509 15.2 20 7.7 101960 79
2007-11-28 09:09:37 51°20.635 2°36.48 11.2 306 7.7 101960 79
2007-11-28 09:09:41 51°20.639 2°36.456 13.8 23 7.7 101960 79
2007-11-28 09:09:47 51°20.644 2°36.422 12.4 306 7.7 101960 79
2007-11-28 09:09:52 51°20.648 2°36.392 12.9 25 7.7 101950 79
2007-11-28 09:09:57 51°20.652 2°36.363 12.3 308 7.7 101950 79
2007-11-28 09:10:01 51°20.655 2°36.339 15.2 23 7.7 101950 79
2007-11-28 09:10:07 51°20.66 2°36.304 15.1 306 7.7 101950 79
2007-11-28 09:10:12 51°20.664 2°36.275 12.2 25 7.7 101960 78
2007-11-28 09:10:17 51°20.667 2°36.246 16 282 7.7 101960 78
2007-11-28 09:10:21 51°20.671 2°36.223 12.6 22 7.6 101970 79
2007-11-28 09:10:27 51°20.676 2°36.188 16.7 307 7.6 101970 79
2007-11-28 09:10:32 51°20.68 2°36.158 13.9 23 7.7 101950 79
2007-11-28 09:10:37 51°20.684 2°36.129 13.7 308 7.7 101950 79
2007-11-28 09:10:41 51°20.688 2°36.105 11.4 25 7.7 101960 79
2007-11-28 09:10:47 51°20.693 2°36.07 12.3 306 7.7 101960 79
2007-11-28 09:10:52 51°20.697 2°36.04 10.6 25 7.7 101950 79
2007-11-28 09:10:57 51°20.701 2°36.011 11.6 306 7.7 101950 79
2007-11-28 09:11:02 51°20.706 2°35.982 15.2 26 7.7 101950 79
2007-11-28 09:11:07 51°20.71 2°35.952 14.9 305 7.7 101950 79
2007-11-28 09:11:12 51°20.714 2°35.923 12.6 23 7.7 101950 79
2007-11-28 09:11:17 51°20.718 2°35.894 16.1 307 7.7 101950 79
2007-11-28 09:11:21 51°20.721 2°35.87 14.4 26 7.7 101960 79
2007-11-28 09:11:27 51°20.727 2°35.835 15.9 308 7.7 101960 79
2007-11-28 09:11:32 51°20.731 2°35.805 13.8 26 7.7 101960 79
2007-11-28 09:11:37 51°20.735 2°35.776 11.7 305 7.7 101960 79
2007-11-28 09:11:41 51°20.738 2°35.753 11.2 25 7.7 101950 79
2007-11-28 09:11:47 51°20.744 2°35.717 16 304 7.7 101950 79
2007-11-28 09:11:52 51°20.747 2°35.688 12.8 23 7.7 101950 79
2007-11-28 09:11:57 51°20.752 2°35.658 11.3 307 7.7 101950 79
2007-11-28 09:12:01 51°20.756 2°35.635 13.1 21 7.7 101950 79
2007-11-28 09:12:07 51°20.76 2°35.6 11.3 306 7.7 101950 79
2007-11-28 09:12:12 51°20.765 2°35.57 12.3 25 7.7 101950 79
2007-11-28 09:12:17 51°20.769 2°35.541 12.5 282 7.7 101950 79
2007-11-28 09:12:21 51°20.772 2°35.517 13.4 26 7.7 101950 79
2007-11-28 09:12:27 51°20.777 2°35.481 13.2 309 7.7 101950 79
2007-11-28 09:12:32 51°20.781 2°35.452 13.3 25 7.7 101940 79
2007-11-28 09:12:37 51°20.785 2°35.422 12.9 304 7.7 101940 79
2007-11-28 09:12:41 51°20.788 2°35.399 14.3 21 7.7 101950 80
2007-11-28 09:12:47 51°20.793 2°35.363 13.5 303 7.7 101950 80
2007-11-28 09:12:52 51°20.798 2°35.334 14.3 25 7.7 101940 79
2007-11-28 09:12:57 51°20.802 2°35.305 16.3 308 7.7 101940 79
2007-11-28 09:13:02 51°20.806 2°35.275 10.9 25 7.7 101940 79
2007-11-28 09:13:07 51°20.811 2°35.246 12.6 307 7.7 101940 79
2007-11-28 09:13:12 51°20.815 2°35.217 15.7 23 7.7 101940 79
2007-11-28 09:13:17 51°20.819 2°35.187 13.7 306 7.7 101940 79
2007-11-28 09:13:21 51°20.822 2°35.164 14.3 22 7.7 101950 79
2007-11-28 09:13:27 51°20.827 2°35.128 14.4 306 7.7 101950 79
2007-11-28 09:13:32 51°20.831 2°35.098 15.3 24 7.7 101950 80
2007-11-28 09:13:37 51°20.836 2°35.069 15.8 308 7.7 101950 80
2007-11-28 09:13:42 51°20.84 2°35.04 16.2 23 7.7 101950 80
2007-11-28 09:13:47 51°20.844 2°35.01 15.8 306 7.7 101950 80
2007-11-28 09:13:52 51°20.849 2°34.981 12.6 22 7.7 101940 80
2007-11-28 09:13:57 51°20.853 2°34.952 13.3 309 7.7 101940 80
2007-11-28 09:14:01 51°20.856 2°34.928 14.8 20 7.7 101950 80
2007-11-28 09:14:07 51°20.861 2°34.893 12.4 304 7.7 101950 80
2007-11-28 09:14:12 51°20.865 2°34.864 15.5 24 7.7 101940 80
2007-11-28 09:14:17 51°20.869 2°34.834 15.1 284 7.7 101940 80
2007-11-28 09:14:21 51°20.873 2°34.811 17.3 23 7.7 101940 80
2007-11-28 09:14:27 51°20.878 2°34.776 12.4 303 7.7 101940 80
2007-11-28 09:14:32 51°20.882 2°34.746 12 27 7.7 101950 80
2007-11-28 09:14:37 51°20.887 2°34.717 15.1 309 7.7 101950 80
2007-11-28 09:14:42 51°20.891 2°34.688 16.1 23 7.7 101940 80
2007-11-28 09:14:47 51°20.895 2°34.658 15.1 308 7.7 101940 80
2007-11-28 09:14:52 51°20.899 2°34.629 15.7 24 7.7 101930 80
2007-11-28 09:14:57 51°20.903 2°34.599 15.8 304 7.7 101930 80
2007-11-28 09:15:02 51°20.907 2°34.569 16.1 22 7.8 101940 80
2007-11-28 09:15:07 51°20.911 2°34.54 11.8 305 7.8 101940 80
2007-11-28 09:15:12 51°20.915 2°34.511 16.4 21 7.8 101940 80
2007-11-28 09:15:17 51°20.919 2°34.481 12.5 306 7.8 101940 80
2007-11-28 09:15:21 51°20.922 2°34.458 15.8 21 7.8 101930 80
2007-11-28 09:15:27 51°20.927 2°34.423 15.7 305 7.8 101930 80
2007-11-28 09:15:32 51°20.932 2°34.394 16.1 24 7.8 101940 80
2007-11-28 09:15:37 51°20.936 2°34.364 12.5 307 7.8 101940 80
2007-11-28 09:15:42 51°20.94 2°34.335 11.7 26 7.8 101930 80
2007-11-28 09:15:47 51°20.944 2°34.305 14.9 306 7.8 101930 80
2007-11-28 09:15:52 51°20.948 2°34.276 12.7 23 7.8 101940 80
2007-11-28 09:15:57 51°20.952 2°34.247 15 307 7.8 101940 80
2007-11-28 09:16:01 51°20.955 2°34.223 14.5 22 7.8 101930 80
2007-11-28 09:16:07 51°20.96 2°34.187 12.2 303 7.8 101930 80
2007-11-28 09:16:12 51°20.964 2°34.158 13.1 24 7.8 101930 80
2007-11-28 09:16:17 51°20.968 2°34.128 12.8 280 7.8 101930 80
2007-11-28 09:16:21 51°20.971 2°34.105 14.6 24 7.8 101930 80
2007-11-28 09:16:27 51°20.976 2°34.069 17.3 305 7.8 101930 80
2007-11-28 09:16:32 51°20.98 2°34.04 14 24 7.8 101920 80
2007-11-28 09:16:37 51°20.985 2°34.011 16.3 306 7.8 101920 80
2007-11-28 09:16:41 51°20.988 2°33.987 13.7 24 7.8 101930 80
2007-11-28 09:16:47 51°20.993 2°33.952 15.9 303 7.8 101930 80
2007-11-28 09:16:52 51°20.997 2°33.923 11.6 26 7.8 101930 80